Weather History for Big Bear City, CA

Change the Weather History Date:

Wednesday, August 7, 2013

  Actual Average (KBUO) Record (KBUO)
Temperature  
Mean Temperature 60 °F -  
Max Temperature 71 °F 92 °F 100 °F (1997)
Min Temperature 48 °F 61 °F 55 °F (1999)
Degree Days  
Heating Degree Days 6    
Growing Degree Days 10 (Base 50)    
Moisture  
Dew Point 23 °F    
Average Humidity 24    
Maximum Humidity 43    
Minimum Humidity 13    
Precipitation  
Precipitation 0.00 in - - ()
Sea Level Pressure  
Sea Level Pressure 30.29 in    
Wind  
Wind Speed 7 mph (WSW)    
Max Wind Speed 17 mph    
Max Gust Speed 23 mph    
Visibility 10 miles    
Events      
Averages and records for this station are not official NWS values.
T = Trace of Precipitation, MM = Missing Value Source: NWS Daily Summary

Daily Weather History Graph

Daily Weather History Graph

Search for Another Location

Airport:

Trip Planner

Search our weather history database for the weather conditions in past years. The results will help you decide how hot, cold, wet, or windy it might be!

Date:

Astronomy

Aug. 07, 2013 Rise Set
Actual Time 6:02 AM PDT 7:42 PM PDT
Civil Twilight 5:35 AM PDT 8:09 PM PDT
Nautical Twilight 5:03 AM PDT 8:42 PM PDT
Astronomical Twilight 4:28 AM PDT 9:16 PM PDT
Moon 6:50 AM PDT (8/7) 7:58 PM PDT (8/7)
Length of Visible Light 14h 33m
Length of Day
13h 39m
New Moon, 1% of the Moon is Illuminated
Aug 7
New Moon
Aug 14
First Quarter
Aug 20
Full
Aug 28
Last Quarter
Sep 5
New

Hourly Weather History & Observations

Time (PDT) Temp. Dew Point Humidity Pressure Visibility Wind Dir Wind Speed Gust Speed Precip Events Conditions
12:15 AM 50.0 °F 24.8 °F 37% 30.30 in 10.0 mi Calm Calm - N/A   Clear
12:35 AM 50.0 °F 24.8 °F 37% 30.30 in 10.0 mi Calm Calm - N/A   Clear
12:55 AM 48.2 °F 26.6 °F 43% 30.30 in 10.0 mi Calm Calm - N/A   Clear
1:15 AM 48.2 °F 26.6 °F 43% 30.29 in 10.0 mi Calm Calm - N/A   Clear
1:35 AM 53.6 °F 23.0 °F 30% 30.28 in 10.0 mi WSW 5.8 mph - N/A   Clear
1:55 AM 53.6 °F 21.2 °F 28% 30.28 in 10.0 mi WSW 6.9 mph - N/A   Clear
2:15 AM 53.6 °F 23.0 °F 30% 30.28 in 10.0 mi SW 5.8 mph - N/A   Clear
2:35 AM 50.0 °F 26.6 °F 40% 30.28 in 10.0 mi SW 3.5 mph - N/A   Clear
2:55 AM 50.0 °F 26.6 °F 40% 30.28 in 10.0 mi West 5.8 mph - N/A   Clear
3:15 AM 51.8 °F 23.0 °F 33% 30.27 in 10.0 mi WSW 6.9 mph - N/A   Clear
3:35 AM 51.8 °F 23.0 °F 33% 30.27 in 10.0 mi West 6.9 mph - N/A   Clear
3:55 AM 50.0 °F 23.0 °F 35% 30.26 in 10.0 mi West 4.6 mph - N/A   Clear
4:15 AM 51.8 °F 21.2 °F 30% 30.26 in 10.0 mi West 4.6 mph - N/A   Clear
4:35 AM 53.6 °F 21.2 °F 28% 30.26 in 10.0 mi Calm Calm - N/A   Clear
4:55 AM 51.8 °F 21.2 °F 30% 30.26 in 10.0 mi Calm Calm - N/A   Clear
5:15 AM 51.8 °F 19.4 °F 28% 30.27 in 10.0 mi West 3.5 mph - N/A   Clear
5:35 AM 50.0 °F 19.4 °F 30% 30.27 in 10.0 mi WSW 4.6 mph - N/A   Clear
5:55 AM 51.8 °F 17.6 °F 26% 30.26 in 10.0 mi West 4.6 mph - N/A   Clear
6:15 AM 55.4 °F 14.0 °F 20% 30.27 in 10.0 mi WSW 5.8 mph - N/A   Clear
6:35 AM 55.4 °F 15.8 °F 21% 30.27 in 10.0 mi SW 4.6 mph - N/A   Clear
6:55 AM 59.0 °F 19.4 °F 22% 30.27 in 10.0 mi West 6.9 mph - N/A   Clear
7:15 AM 60.8 °F 14.0 °F 16% 30.28 in 10.0 mi West 6.9 mph - N/A   Clear
7:35 AM 62.6 °F 12.2 °F 14% 30.28 in 10.0 mi WSW 5.8 mph - N/A   Clear
7:55 AM 62.6 °F 19.4 °F 19% 30.28 in 10.0 mi West 9.2 mph - N/A   Clear
8:15 AM 64.4 °F 17.6 °F 16% 30.28 in 10.0 mi West 12.7 mph - N/A   Clear
8:35 AM 64.4 °F 14.0 °F 14% 30.29 in 10.0 mi West 12.7 mph 17.3 mph N/A   Clear
8:55 AM 64.4 °F 21.2 °F 19% 30.29 in 10.0 mi West 10.4 mph - N/A   Clear
9:15 AM 66.2 °F 17.6 °F 15% 30.29 in 10.0 mi West 13.8 mph 18.4 mph N/A   Clear
9:35 AM 68.0 °F 17.6 °F 15% 30.29 in 10.0 mi West 12.7 mph 18.4 mph N/A   Clear
9:55 AM 68.0 °F 19.4 °F 16% 30.30 in 10.0 mi West 13.8 mph 19.6 mph N/A   Clear
10:15 AM 68.0 °F 15.8 °F 13% 30.31 in 10.0 mi West 12.7 mph 17.3 mph N/A   Clear
10:35 AM 68.0 °F 17.6 °F 15% 30.31 in 10.0 mi West 13.8 mph - N/A   Clear
10:55 AM 69.8 °F 19.4 °F 15% 30.31 in 10.0 mi West 16.1 mph - N/A   Clear
11:15 AM 69.8 °F 19.4 °F 15% 30.31 in 10.0 mi West 15.0 mph 20.7 mph N/A   Clear
11:35 AM 69.8 °F 17.6 °F 14% 30.32 in 10.0 mi West 13.8 mph 19.6 mph N/A   Clear
11:55 AM 69.8 °F 17.6 °F 14% 30.31 in 10.0 mi West 17.3 mph 20.7 mph N/A   Clear
12:15 PM 71.6 °F 17.6 °F 13% 30.31 in 10.0 mi West 12.7 mph 21.9 mph N/A   Clear
12:35 PM 71.6 °F 21.2 °F 15% 30.32 in 10.0 mi West 16.1 mph 21.9 mph N/A   Clear
12:55 PM 69.8 °F 23.0 °F 17% 30.32 in 10.0 mi West 13.8 mph 18.4 mph N/A   Clear
1:15 PM 71.6 °F 23.0 °F 16% 30.31 in 10.0 mi West 15.0 mph - N/A   Clear
1:35 PM 69.8 °F 23.0 °F 17% 30.31 in 10.0 mi West 16.1 mph - N/A   Clear
1:55 PM 69.8 °F 23.0 °F 17% 30.31 in 10.0 mi West 13.8 mph 21.9 mph N/A   Clear
2:15 PM 71.6 °F 26.6 °F 19% 30.31 in 10.0 mi West 15.0 mph 18.4 mph N/A   Clear
2:35 PM 71.6 °F 24.8 °F 17% 30.31 in 10.0 mi WSW 11.5 mph 20.7 mph N/A   Clear
2:55 PM 69.8 °F 24.8 °F 18% 30.30 in 10.0 mi West 17.3 mph 23.0 mph N/A   Clear
3:15 PM 71.6 °F 26.6 °F 19% 30.30 in 10.0 mi SW 13.8 mph 20.7 mph N/A   Clear
3:35 PM 71.6 °F 24.8 °F 17% 30.30 in 10.0 mi WSW 10.4 mph 20.7 mph N/A   Clear
3:55 PM 69.8 °F 26.6 °F 20% 30.29 in 10.0 mi WSW 9.2 mph 21.9 mph N/A   Clear
4:15 PM 69.8 °F 26.6 °F 20% 30.29 in 10.0 mi WSW 11.5 mph 21.9 mph N/A   Clear
4:35 PM 69.8 °F 26.6 °F 20% 30.29 in 10.0 mi WSW 15.0 mph 21.9 mph N/A   Clear
4:55 PM 69.8 °F 26.6 °F 20% 30.29 in 10.0 mi SW 11.5 mph 19.6 mph N/A   Clear
5:15 PM 69.8 °F 26.6 °F 20% 30.28 in 10.0 mi SW 11.5 mph 21.9 mph N/A   Clear
5:35 PM 68.0 °F 26.6 °F 21% 30.28 in 10.0 mi WSW 11.5 mph 20.7 mph N/A   Clear
5:55 PM 68.0 °F 26.6 °F 21% 30.27 in 10.0 mi SW 11.5 mph 17.3 mph N/A   Clear
6:15 PM 68.0 °F 24.8 °F 20% 30.28 in 10.0 mi WSW 12.7 mph 17.3 mph N/A   Clear
6:35 PM 66.2 °F 26.6 °F 23% 30.28 in 10.0 mi WSW 11.5 mph 20.7 mph N/A   Clear
6:55 PM 64.4 °F 26.6 °F 24% 30.28 in 10.0 mi WSW 10.4 mph 20.7 mph N/A   Clear
7:15 PM 64.4 °F 28.4 °F 26% 30.28 in 10.0 mi West 11.5 mph 18.4 mph N/A   Clear
7:35 PM 62.6 °F 28.4 °F 27% 30.28 in 10.0 mi WSW 9.2 mph - N/A   Clear
7:55 PM 62.6 °F 28.4 °F 27% 30.28 in 10.0 mi WSW 8.1 mph - N/A   Clear
8:15 PM 60.8 °F 26.6 °F 27% 30.28 in 10.0 mi WSW 6.9 mph - N/A   Clear
8:35 PM 60.8 °F 28.4 °F 29% 30.28 in 10.0 mi WSW 6.9 mph - N/A   Clear
8:55 PM 59.0 °F 30.2 °F 34% 30.28 in 10.0 mi WSW 6.9 mph - N/A   Clear
9:15 PM 59.0 °F 30.2 °F 34% 30.29 in 10.0 mi WSW 5.8 mph - N/A   Clear
9:35 PM 59.0 °F 28.4 °F 31% 30.29 in 10.0 mi WSW 5.8 mph - N/A   Clear
9:55 PM 59.0 °F 28.4 °F 31% 30.29 in 10.0 mi WSW 4.6 mph - N/A   Clear
10:15 PM 59.0 °F 28.4 °F 31% 30.29 in 10.0 mi WSW 6.9 mph - N/A   Clear
10:35 PM 59.0 °F 26.6 °F 29% 30.28 in 10.0 mi West 9.2 mph - N/A   Clear
10:55 PM 57.2 °F 28.4 °F 33% 30.27 in 10.0 mi WSW 8.1 mph - N/A   Clear
11:15 PM 57.2 °F 28.4 °F 33% 30.27 in 10.0 mi WSW 9.2 mph - N/A   Clear
11:35 PM 57.2 °F 28.4 °F 33% 30.27 in 10.0 mi WSW 6.9 mph - N/A   Clear
11:55 PM 57.2 °F 28.4 °F 33% 30.27 in 10.0 mi West 10.4 mph - N/A   Clear